Weather History for PAHO - October, 2013

Change the Weather History Date:

Tuesday, October 8, 2013

  Actual Average Record
Temperature  
Mean Temperature 50 °F -  
Max Temperature 55 °F 47 °F 56 °F (1993)
Min Temperature 46 °F 35 °F 19 °F (1951)
Degree Days  
Heating Degree Days 14    
Moisture  
Dew Point 41 °F    
Average Humidity 71    
Maximum Humidity 87    
Minimum Humidity 56    
Precipitation  
Precipitation 0.54 in - - ()
Sea Level Pressure  
Sea Level Pressure 29.24 in    
Wind  
Wind Speed 12 mph (SW)    
Max Wind Speed 25 mph    
Max Gust Speed 39 mph    
Visibility 9 miles    
Events Rain    
Averages and records for this station are not official NWS values.
T = Trace of Precipitation, MM = Missing Value Source: NWS Daily Summary

Daily Weather History Graph

Daily Weather History Graph

Search for Another Location

Airport or City:

Trip Planner

Search our weather history database for the weather conditions in past years. The results will help you decide how hot, cold, wet, or windy it might be!

Date:

Astronomy

Oct. 08, 2013 Rise Set
Actual Time 8:28 AM AKDT 7:16 PM AKDT
Civil Twilight 7:47 AM AKDT 7:57 PM AKDT
Nautical Twilight 6:59 AM AKDT 8:45 PM AKDT
Astronomical Twilight 6:10 AM AKDT 9:34 PM AKDT
Moon 1:34 PM AKDT (10/8) 9:01 PM AKDT (10/8)
Length of Visible Light 12h 10m
Length of Day
10h 47m
Waxing Crescent, 17% of the Moon is Illuminated
Oct 8
Waxing Crescent
Oct 11
First Quarter
Oct 18
Full
Oct 26
Last Quarter
Nov 3
New

Hourly Weather History & Observations

Time (AKDT) Temp. Windchill Dew Point Humidity Pressure Visibility Wind Dir Wind Speed Gust Speed Precip Events Conditions
12:53 AM 51.1 °F - 39.9 °F 66% 29.60 in 10.0 mi ESE 6.9 mph 21.9 mph N/A   Overcast
1:53 AM 51.1 °F - 41.0 °F 68% 29.57 in 10.0 mi ESE 10.4 mph - 0.02 in Rain Light Rain
2:53 AM 52.0 °F - 42.1 °F 69% 29.49 in 10.0 mi ESE 10.4 mph - 0.01 in Rain Light Rain
3:53 AM 53.1 °F - 41.0 °F 64% 29.44 in 10.0 mi ESE 16.1 mph 26.5 mph 0.00 in Rain Light Rain
4:53 AM 54.0 °F - 42.1 °F 64% 29.36 in 10.0 mi ESE 18.4 mph 31.1 mph 0.01 in Rain Rain
5:53 AM 54.0 °F - 42.1 °F 64% 29.34 in 9.0 mi SE 20.7 mph 34.5 mph 0.02 in Rain Rain
6:53 AM 55.0 °F - 42.1 °F 62% 29.28 in 10.0 mi ESE 21.9 mph 38.0 mph 0.04 in   Overcast
7:53 AM 54.0 °F - 43.0 °F 66% 29.26 in 9.0 mi SE 11.5 mph 18.4 mph 0.04 in Rain Rain
8:53 AM 53.1 °F - 44.1 °F 71% 29.25 in 4.0 mi Variable 3.5 mph - 0.07 in Rain Heavy Rain
9:53 AM 52.0 °F - 45.0 °F 77% 29.23 in 10.0 mi East 8.1 mph - 0.13 in   Overcast
10:53 AM 51.1 °F - 44.1 °F 77% 29.20 in 10.0 mi ENE 5.8 mph - N/A   Mostly Cloudy
11:53 AM 52.0 °F - 45.0 °F 77% 29.17 in 10.0 mi West 4.6 mph - 0.00 in Rain Light Rain
12:09 PM 51.8 °F - 46.4 °F 82% 29.17 in 8.0 mi West 6.9 mph - 0.00 in Rain Light Rain
12:42 PM 51.8 °F - 46.4 °F 82% 29.16 in 5.0 mi SW 10.4 mph - 0.06 in Rain Rain
12:53 PM 51.1 °F - 46.9 °F 86% 29.18 in 3.0 mi WSW 15.0 mph 24.2 mph 0.09 in Rain Heavy Rain
1:53 PM 50.0 °F - 46.0 °F 86% 29.17 in 3.0 mi West 10.4 mph 24.2 mph 0.10 in Rain Rain
2:00 PM 50.0 °F - 46.4 °F 87% 29.17 in 10.0 mi West 10.4 mph - 0.00 in Rain Rain
2:43 PM 48.2 °F - 42.8 °F 82% 29.17 in 3.0 mi West 12.7 mph 21.9 mph 0.01 in Rain Light Rain
2:53 PM 48.9 °F - 41.0 °F 74% 29.17 in 10.0 mi West 9.2 mph 18.4 mph 0.01 in   Overcast
3:53 PM 48.0 °F - 42.1 °F 80% 29.18 in 10.0 mi WSW 10.4 mph - N/A   Overcast
4:53 PM 50.0 °F - 36.0 °F 59% 29.17 in 10.0 mi WSW 12.7 mph 23.0 mph 0.00 in   Overcast
5:53 PM 48.0 °F - 33.1 °F 56% 29.17 in 10.0 mi WSW 11.5 mph 19.6 mph N/A   Clear
6:53 PM 48.0 °F - 34.0 °F 58% 29.16 in 10.0 mi West 12.7 mph 21.9 mph N/A   Scattered Clouds
7:53 PM 48.0 °F - 36.0 °F 63% 29.16 in 10.0 mi West 9.2 mph - N/A   Mostly Cloudy
8:53 PM 48.0 °F - 37.0 °F 66% 29.15 in 10.0 mi WSW 13.8 mph - N/A   Overcast
9:53 PM 48.0 °F - 35.1 °F 61% 29.15 in 10.0 mi WSW 19.6 mph 27.6 mph N/A   Overcast
10:29 PM 46.4 °F 38.7 °F 37.4 °F 71% 29.15 in 10.0 mi WSW 20.7 mph 34.5 mph 0.00 in   Overcast
10:53 PM 46.9 °F - 36.0 °F 66% 29.16 in 10.0 mi WSW 25.3 mph 32.2 mph 0.00 in   Overcast
11:19 PM 46.4 °F 38.1 °F 37.4 °F 71% 29.16 in 10.0 mi WSW 24.2 mph 34.5 mph N/A   Overcast
11:34 PM 46.4 °F 38.1 °F 37.4 °F 71% 29.17 in 10.0 mi WSW 24.2 mph 39.1 mph N/A   Overcast
11:53 PM 46.9 °F - 37.0 °F 68% 29.18 in 10.0 mi WSW 21.9 mph 33.4 mph N/A   Mostly Cloudy